Location: Meanaryar
(48.4161°N, 4.7315°W)
Time: 09:17:41
(UTC+00:00)

Cosmos 1092 Rocket - Pass Details

Date: 19 January 2021
Orbit: 954 x 995 km, 83.0° (Epoch: 02 March)

Event Time Altitude Azimuth Distance (km) Brightness Sun altitude
Rises 19:57:19 0° 200° (SSW) 3,658 7.2 -29.3°
Reaches altitude 10° 19:59:52 10° 204° (SSW) 2,709 6.5 -29.8°
Maximum altitude 20:05:58 58° 283° (WNW) 1,113 4.4 -30.8°
Drops below altitude 10° 20:12:04 10° 3° (N) 2,703 6.3 -31.8°
Sets 20:14:38 0° 7° (N) 3,650 7.0 -32.2°
